CARTOSAT-2D (41948 NORAD) Tracking and Keplerian Element Data

This shows tracking and keplerian element data for the satellite.

Feedback or suggestion? Click here.




ElementValue
Catalog41948
NameCARTOSAT-2D
Epoch Orbit10078
Epoch Day345.01773475
Epoch Year2018
RAAN43.9736
Inclination97.4237
Eccentricity0.0008
Argument of Perigee121.5067
Mean Anonmoly238.6964
Mean Motion15.19250336
Decay Rate4.54E-06
L11 41948U 17008A 18345.01773475 .00000454 00000-0 24722-4 0 9991
L22 41948 97.4237 43.9736 0008000 121.5067 238.6964 15.19250336100781

Live tracking and technical data element details for CARTOSAT-2D (NORAD 41948). CARTOSAT-2D can be tracked NOW for your location showing map with azimuth and elevation plus other details from your city location.

Track the satellite on the map from your city or location and see movement details for azimuth, elevation, latitude, longitude, range, height, and movement on the map or in text.







IsCatalogInMostPopularTable: catalog: 41948, numindb: 111
Update: records affected: 1



GetName: 41948 CARTOSAT-2D

Hit Count: updated at: Thu, 13 Dec 2018 04:07:29 GMT